Regional Weather Roundup
Issued by NWS

Home | Current Version | Previous Version | Text Only | Print | Product List | Glossary Off
Versions: 1 2 3 4 5 6 7 8 9 10 11 12 13 14 15 16 17 18 19 20 21 22 23 24 25 26 27 28 29 30 31 32 33 34 35 36 37 38 39 40 41 42 43 44 45 46 47 48 49 50

000
ASUS43 KLOT 181308
RWRIL

ILLINOIS REGIONAL WEATHER ROUNDUP
NATIONAL WEATHER SERVICE CHICAGO/ROMEOVILLE IL
800 AM CDT FRI AUG 18 2017

NOTE: "FAIR" INDICATES FEW OR NO CLOUDS BELOW 12,000 FEET WITH NO
SIGNIFICANT WEATHER AND/OR OBSTRUCTIONS TO VISIBILITY.

* THESE STATIONS ARE NOT UNDER NWS QUALITY CONTROL. THEY ALSO MAY NOT
  REPORT WEATHER SUCH AS PRECIPITATION OR FOG.

ILZ001-002-007-009-015-016-024-181400-
NORTHWEST ILLINOIS

CITY           SKY/WX    TMP DP  RH WIND       PRES   REMARKS
MOLINE         SUNNY     68  62  81 W9        29.92R
STERLING*      SUNNY     66  63  90 W10       29.89R
SAVANNA*       SUNNY     66  61  85 W6        29.90R
$$

ILZ003-004-008-010-011-017-018-181400-
NORTH CENTRAL ILLINOIS

CITY           SKY/WX    TMP DP  RH WIND       PRES   REMARKS
ROCKFORD       MOSUNNY   66  62  87 W9        29.88R
FREEPORT*      SUNNY     64  62  94 W6        29.90R
ROCHELLE*      SUNNY     65  63  94 W10       29.88S
DE KALB*       SUNNY     66  63  91 W10G16    29.87S
PERU*          SUNNY     65  62  89 NW8       29.89R
$$

ILZ005-006-012>014-019>023-181400-
NORTHEAST ILLINOIS

CITY           SKY/WX    TMP DP  RH WIND       PRES   REMARKS
CHICAGO-OHARE  MOSUNNY   69  62  78 W14       29.84R
CHICAGO-MIDWAY MOSUNNY   69  64  84 NW12      29.84R
AURORA         MOSUNNY   67  65  93 W9        29.87R
LANSING*       MOSUNNY   69  62  78 W8        29.85S
JOLIET*        MOSUNNY   68  65  90 W6        29.86R
WAUKEGAN       CLOUDY    67  63  87 VRB6      29.82R
DUPAGE AIRPORT MOSUNNY   67  65  93 W13G18    29.85R
KANKAKEE*      SUNNY     67  65  93 W10       29.88R
WHEELING       MOSUNNY   68  65  90 W9        29.85R
MORRIS*        SUNNY     66  64  93 W8        29.86R
ROMEOVILLE*    PTSUNNY   66  62  86 W9        29.86R
NORTHERLY ISL    N/A     70  62  76 W10         N/A
$$

LMZ740>746-181400-
SOUTHERN LAKE MICHIGAN

STATION/POSITION SKY/WX   TEMP    WIND        PRES    VSBY  WAVE
                          AIR SEA DIR/SP/G                  HT/PER
                          (F)     (DEG/KT/KT) (MB)    (MI)  (FT/S)
SOUTHERN BUOY              70 71  320/ 19/ 25 1007.8          4/ 5
WILMETTE HARBOR            68 72  280/ 12/ 14   N/A           1/ 2
HARRISON CRIB              69     290/ 13/ 15   N/A
CALUMET HARBOR             69     280/  5/  9 1010.0R
BURNS HARBOR               70     280/ 13/ 17 1010.8R
MICHIGAN CITY              69     250/ 15/ 17   N/A
MICHIGAN CITY 6N           71 74  290/ 14/ 17   N/A           4/ 4
ST. JOSEPH                 70 73  300/ 16/ 19 1009.8          5/ 5
$$

ILZ025>027-034>036-040-047-049-050-058-095>099-181400-
WEST-CENTRAL ILLINOIS

CITY           SKY/WX    TMP DP  RH WIND       PRES   REMARKS
QUINCY         PTSUNNY   66  62  87 W5        29.96R
GALESBURG*     SUNNY     64  63  94 W7        29.95R
MACOMB*        MOSUNNY   64  63  96 W7        29.97R
JACKSONVILLE*  MOSUNNY   66  62  86 W5        29.95R
PITTSFIELD*    MOSUNNY   67  63  85 W5        29.98R
$$

ILZ028>032-037-038-041>044-048-051>054-059>061-181400-
CENTRAL ILLINOIS

CITY           SKY/WX    TMP DP  RH WIND       PRES   REMARKS
PONTIAC        SUNNY     67  67  98 W12       29.90R
BLOOMINGTON    SUNNY     68  63  84 W10       29.92R
DECATUR        SUNNY     70  63  78 W9        29.92R
PEORIA         SUNNY     67  64  90 W5        29.92R
LACON*         SUNNY     67  63  86 W5        29.90R
LINCOLN*       SUNNY     69  65  84 W5        29.92R
SPRINGFIELD    SUNNY     67  64  90 W3        29.93R
TAYLORVILLE    SUNNY     66  63  90 W6        29.94R
$$

ILZ033-039-045-046-055>057-062-063-181400-
EAST-CENTRAL ILLINOIS

CITY           SKY/WX    TMP DP  RH WIND       PRES   REMARKS
CHAMPAIGN      SUNNY     68  64  87 SW6       29.91R
RANTOUL*       SUNNY     70  65  84 W5        29.90R
MATTOON        MOSUNNY   70  66  87 W6        29.92R
PARIS*         SUNNY     68  65  90 W6        29.92R
$$

ILZ079-100>102-181400-
SOUTHWEST ILLINOIS

CITY           SKY/WX    TMP DP  RH WIND       PRES   REMARKS
ALTON          MOSUNNY   66  64  94 W7        29.96R
BELLEVILLE     SUNNY     71  64  80 W6        29.96R
CAHOKIA*       SUNNY     71  64  78 W6        29.96R
SPARTA*        MOSUNNY   68  64  86 W5        29.97R
$$

ILZ064>066-069>071-074>076-080>082-084>086-088>090-092>094-181400-
SOUTH-CENTRAL ILLINOIS

CITY           SKY/WX    TMP DP  RH WIND       PRES   REMARKS
CARBONDALE     SUNNY     69  67  93 SW5       29.96R
CAIRO*         MOSUNNY   71  68  92 SW3       29.98R
EFFINGHAM*     SUNNY     69  67  94 W3        29.95R
MARION         SUNNY     72  72 100 W7        29.97R
MT. VERNON     SUNNY     68  65  90 VRB3      29.95R
CENTRALIA*     SUNNY     69  66  92 W5        29.94R
SALEM*         SUNNY     70  65  84 W5        29.95R
METROPOLIS*    MOSUNNY   73  69  87 W6        29.98R
$$

ILZ067-068-072-073-078-083-087-091-181400-
SOUTHEAST ILLINOIS

CITY           SKY/WX    TMP DP  RH WIND       PRES   REMARKS
LAWRENCEVILLE  SUNNY     70  65  84 W6        29.93R
FLORA*         SUNNY     71  65  82 W5        29.94R
FAIRFIELD*     SUNNY     68  66  92 CALM      29.93S
HARRISBURG*    SUNNY     70  67  90 W5        29.96R
ROBINSON*      SUNNY     69  66  89 CALM      29.93R
CARMI*         MOSUNNY   70  67  89 W5        29.94R
$$

ABBREVIATIONS USED IN REMARKS
   TC - TEMPERATURE IN CELSIUS
  WCI - WIND CHILL INDEX
   HX - HEAT INDEX
  VSB - VISIBILITY
$$





USA.gov is the U.S. government's official web portal to all federal, state and local government web resources and services.